Beckley, WV

6:52 AM EDT on September 20, 2019 (GMT -0400)
Raleigh County Memorial

Weather History for KBKW - July, 2019

Change the Weather History Date:

Wednesday, July 31, 2019

  Actual Average Record
Temperature  
Mean Temperature 73 °F 70 °F  
Max Temperature 84 °F 80 °F 93 °F (1926)
Min Temperature 62 °F 61 °F 45 °F (1936)
Degree Days  
Heating Degree Days 0 0  
Month to date heating degree days 3 0  
Since 1 June heating degree days 36 47  
Since 1 July heating degree days 3 8  
Cooling Degree Days 8 6  
Month to date cooling degree days 275 181  
Year to date cooling degree days 501 333  
Since 1 June cooling degree days 381 292  
Growing Degree Days 23 (Base 50)    
Moisture  
Dew Point 61 °F    
Average Humidity 70    
Maximum Humidity 87    
Minimum Humidity 49    
Precipitation  
Precipitation 0.00 in 0.17 in 2.17 in (1909)
Month to date precipitation 5.23 5.03  
Year to date precipitation 28.12 26.19  
Sea Level Pressure  
Sea Level Pressure 30.10 in    
Wind  
Wind Speed 4 mph ()    
Max Wind Speed 13 mph    
Max Gust Speed 20 mph    
Visibility 10.0 miles    
Events Thunderstorm    
T = Trace of Precipitation, MM = Missing Value Source: Averaged Metar Reports

Daily Weather History Graph

Daily Weather History Graph

Search for Another Location

Airport or City:

Astronomy

Jul. 31, 2019 Rise Set
Actual Time 6:26 AM EDT 8:34 PM EDT
Civil Twilight 5:57 AM EDT 9:03 PM EDT
Nautical Twilight 5:21 AM EDT 9:39 PM EDT
Astronomical Twilight 4:43 AM EDT 10:17 PM EDT
Moon 5:39 AM EDT (7/31) 8:31 PM EDT (7/31)
Length of Visible Light 15h 05m
Length of Day
14h 07m
Waning Crescent, 0% of the Moon is Illuminated
Jul 31
Waning Crescent
Jul 31
New
Aug 7
First Quarter
Aug 15
Full
Aug 23
Last Quarter

Hourly Weather History & Observations

Time (EDT) Temp. Heat Index Dew Point Humidity Pressure Visibility Wind Dir Wind Speed Gust Speed Precip Events Conditions
12:51 AM 66.0 °F - 61.0 °F 84% 30.06 in 10.0 mi South 3.5 mph - N/A   Clear
1:51 AM 64.9 °F - 60.1 °F 84% 30.05 in 10.0 mi SSW 3.5 mph - N/A   Scattered Clouds
2:51 AM 64.9 °F - 59.0 °F 81% 30.03 in 10.0 mi South 4.6 mph - N/A   Clear
3:51 AM 64.0 °F - 60.1 °F 87% 30.04 in 10.0 mi Calm Calm - N/A   Overcast
4:51 AM 64.9 °F - 59.0 °F 81% 30.05 in 10.0 mi South 3.5 mph - N/A   Overcast
5:51 AM 63.0 °F - 57.0 °F 81% 30.07 in 10.0 mi South 4.6 mph - N/A   Clear
6:51 AM 62.1 °F - 57.9 °F 86% 30.07 in 10.0 mi Calm Calm - N/A   Clear
7:51 AM 64.9 °F - 59.0 °F 81% 30.09 in 10.0 mi Calm Calm - N/A   Partly Cloudy
8:51 AM 69.1 °F - 59.0 °F 70% 30.10 in 10.0 mi SSW 4.6 mph - N/A   Partly Cloudy
9:51 AM 72.0 °F - 61.0 °F 68% 30.10 in 10.0 mi Variable 3.5 mph - N/A   Clear
10:51 AM 75.0 °F - 63.0 °F 66% 30.10 in 10.0 mi NW 6.9 mph - N/A   Partly Cloudy
11:35 AM 75.9 °F - 63.0 °F 64% 30.20 in 10.0 mi West 5.8 mph - N/A   Mostly Cloudy
11:42 AM 75.0 °F - 63.0 °F 66% 30.19 in 10.0 mi NW 6.9 mph - N/A   Mostly Cloudy
11:51 AM 75.9 °F - 63.0 °F 64% 30.10 in 10.0 mi WNW 4.6 mph - N/A   Mostly Cloudy
12:51 PM 77.0 °F - 63.0 °F 62% 30.09 in 10.0 mi West 5.8 mph - N/A   Partly Cloudy
1:51 PM 78.1 °F - 62.1 °F 58% 30.07 in 10.0 mi Variable 4.6 mph - N/A   Scattered Clouds
2:51 PM 79.0 °F - 61.0 °F 54% 30.06 in 10.0 mi Variable 4.6 mph - N/A   Mostly Cloudy
3:08 PM 82.0 °F 82.7 °F 61.0 °F 49% 30.15 in 10.0 mi Variable 6.9 mph - N/A Thunderstorm Thunderstorm
3:23 PM 78.1 °F - 64.9 °F 64% 30.14 in 10.0 mi Variable 4.6 mph - N/A Thunderstorm Overcast
3:47 PM 78.8 °F - 66.2 °F 65% 30.13 in 10.0 mi Calm Calm - N/A   Scattered Clouds
3:51 PM 81.0 °F 82.5 °F 64.0 °F 56% 30.03 in 10.0 mi Calm Calm - N/A   Scattered Clouds
4:01 PM 80.1 °F 81.1 °F 61.0 °F 52% 30.13 in 10.0 mi West 9.2 mph - N/A Thunderstorm Thunderstorm
4:16 PM 82.0 °F 83.0 °F 62.1 °F 51% 30.13 in 10.0 mi West 8.1 mph - N/A   Scattered Clouds
4:51 PM 82.0 °F 83.0 °F 62.1 °F 51% 30.02 in 10.0 mi WNW 9.2 mph - N/A   Scattered Clouds
5:51 PM 80.1 °F 81.7 °F 64.0 °F 58% 30.03 in 10.0 mi North 9.2 mph - N/A   Partly Cloudy
6:51 PM 75.0 °F - 64.9 °F 71% 30.05 in 10.0 mi ESE 5.8 mph - N/A   Mostly Cloudy
7:01 PM 75.0 °F - 64.9 °F 71% 30.14 in 10.0 mi ESE 5.8 mph - N/A Thunderstorm Thunderstorm
7:16 PM 75.0 °F - 64.0 °F 69% 30.14 in 10.0 mi SE 5.8 mph - N/A Thunderstorm Mostly Cloudy
7:51 PM 72.0 °F - 62.1 °F 71% 30.07 in 10.0 mi SE 8.1 mph - N/A Thunderstorm Overcast
8:06 PM 72.0 °F - 61.0 °F 68% 30.16 in 10.0 mi SE 10.4 mph - N/A Thunderstorm Thunderstorm
8:21 PM 70.0 °F - 60.1 °F 71% 30.16 in 10.0 mi SE 11.5 mph - N/A Thunderstorm Mostly Cloudy
8:51 PM 68.0 °F - 60.1 °F 76% 30.06 in 10.0 mi SSE 4.6 mph - N/A Thunderstorm Thunderstorm
9:15 PM 69.1 °F - 60.1 °F 73% 30.16 in 10.0 mi NNE 5.8 mph - N/A Thunderstorm Clear
9:33 PM 68.0 °F - 60.1 °F 76% 30.16 in 10.0 mi ESE 4.6 mph - N/A   Clear
9:51 PM 66.0 °F - 60.1 °F 81% 30.08 in 10.0 mi SSE 3.5 mph - N/A   Clear
10:51 PM 64.0 °F - 60.1 °F 87% 30.08 in 10.0 mi East 3.5 mph - N/A   Clear
11:51 PM 64.0 °F - 60.1 °F 87% 30.08 in 10.0 mi Calm Calm - N/A   Clear